Time,TemperatureF,DewpointF,PressureIn,WindDirection,WindDirectionDegrees,WindSpeedMPH,WindSpeedGustMPH,Humidity,HourlyPrecipIn,Conditions,Clouds,dailyrainin,SoftwareType,DateUTC
2013-06-10 00:00:00,69.6,69.1,30.10,SSW,204,4.0,6.0,98,0.00,,,0.29,meteohub,2013-06-10 04:00:00,
2013-06-10 00:01:00,69.6,69.1,30.10,SSW,204,0.0,6.0,98,0.00,,,0.29,meteohub,2013-06-10 04:01:00,
2013-06-10 00:02:00,69.6,69.1,30.10,SSW,204,0.0,6.0,98,0.00,,,0.29,meteohub,2013-06-10 04:02:00,
2013-06-10 00:03:00,69.6,69.1,30.10,SW,229,2.0,6.0,98,0.00,,,0.29,meteohub,2013-06-10 04:03:00,
2013-06-10 00:08:00,69.6,69.1,30.10,WSW,243,0.0,6.0,98,0.00,,,0.29,meteohub,2013-06-10 04:08:00,
2013-06-10 00:13:00,69.6,69.1,30.10,WSW,250,3.0,6.0,98,0.00,,,0.29,meteohub,2013-06-10 04:13:00,
2013-06-10 00:18:00,69.6,69.1,30.10,South,187,8.0,8.0,98,0.00,,,0.29,meteohub,2013-06-10 04:18:00,
2013-06-10 00:23:00,69.6,69.1,30.10,SW,217,4.0,8.0,98,0.00,,,0.29,meteohub,2013-06-10 04:23:00,
2013-06-10 00:28:00,69.6,69.1,30.07,WSW,240,0.0,8.0,98,0.00,,,0.29,meteohub,2013-06-10 04:28:00,
2013-06-10 00:33:00,69.6,69.1,30.07,SSW,213,5.0,8.0,98,0.00,,,0.29,meteohub,2013-06-10 04:33:00,
2013-06-10 00:38:00,69.6,69.1,30.07,SSW,198,6.0,8.0,98,0.00,,,0.29,meteohub,2013-06-10 04:38:00,
2013-06-10 00:43:00,69.6,69.1,30.07,WSW,242,5.0,8.0,98,0.00,,,0.29,meteohub,2013-06-10 04:43:00,
2013-06-10 00:48:00,69.6,69.1,30.07,SSW,193,4.0,8.0,98,0.00,,,0.29,meteohub,2013-06-10 04:48:00,
2013-06-10 00:53:00,69.6,69.1,30.07,SSW,202,3.0,8.0,98,0.00,,,0.29,meteohub,2013-06-10 04:53:00,
2013-06-10 00:58:00,69.6,69.1,30.07,SW,217,4.0,7.0,98,0.00,,,0.29,meteohub,2013-06-10 04:58:00,
2013-06-10 01:03:00,69.4,68.9,30.07,South,184,3.0,7.0,98,0.00,,,0.29,meteohub,2013-06-10 05:03:00,
2013-06-10 01:08:00,69.4,68.9,30.07,SSW,199,3.0,6.0,98,0.00,,,0.29,meteohub,2013-06-10 05:08:00,
2013-06-10 01:13:00,69.4,68.9,30.07,SW,215,4.0,8.0,98,0.00,,,0.29,meteohub,2013-06-10 05:13:00,
2013-06-10 01:18:00,69.4,68.9,30.07,SSW,212,6.0,8.0,98,0.04,,,0.33,meteohub,2013-06-10 05:18:00,
2013-06-10 01:23:00,69.4,68.9,30.07,SW,226,8.0,8.0,98,0.04,,,0.33,meteohub,2013-06-10 05:23:00,
2013-06-10 01:28:00,69.4,68.9,30.07,SW,224,4.0,8.0,98,0.04,,,0.33,meteohub,2013-06-10 05:28:00,
2013-06-10 01:33:00,69.4,68.9,30.07,SW,217,3.0,8.0,98,0.04,,,0.33,meteohub,2013-06-10 05:33:00,
2013-06-10 01:38:00,69.4,68.9,30.07,SSW,195,4.0,8.0,98,0.04,,,0.33,meteohub,2013-06-10 05:38:00,
2013-06-10 01:43:00,69.4,68.9,30.07,South,186,3.0,8.0,98,0.04,,,0.33,meteohub,2013-06-10 05:43:00,
2013-06-10 01:48:00,69.4,68.9,30.07,SSE,164,6.0,8.0,98,0.04,,,0.33,meteohub,2013-06-10 05:48:00,
2013-06-10 01:53:00,69.4,68.9,30.07,SW,232,0.0,6.0,98,0.04,,,0.33,meteohub,2013-06-10 05:53:00,
2013-06-10 01:58:00,69.4,68.9,30.07,South,187,0.0,9.0,98,0.04,,,0.33,meteohub,2013-06-10 05:58:00,
2013-06-10 02:03:00,69.4,68.9,30.07,SSE,152,0.0,9.0,98,0.04,,,0.33,meteohub,2013-06-10 06:03:00,
2013-06-10 02:08:00,69.4,68.9,30.07,SW,216,5.0,6.0,98,0.04,,,0.33,meteohub,2013-06-10 06:08:00,
2013-06-10 02:13:00,69.4,68.9,30.07,SW,229,0.0,6.0,98,0.00,,,0.33,meteohub,2013-06-10 06:13:00,
2013-06-10 02:18:00,69.4,68.9,30.07,West,274,0.0,6.0,98,0.00,,,0.33,meteohub,2013-06-10 06:18:00,
2013-06-10 02:23:00,69.4,68.9,30.07,SSW,208,3.0,6.0,98,0.00,,,0.33,meteohub,2013-06-10 06:23:00,
2013-06-10 02:28:00,69.4,68.9,30.07,ENE,63,0.0,8.0,98,0.00,,,0.33,meteohub,2013-06-10 06:28:00,
2013-06-10 02:33:00,69.4,68.9,30.07,SSW,203,0.0,8.0,98,0.00,,,0.33,meteohub,2013-06-10 06:33:00,
2013-06-10 02:38:00,69.4,68.9,30.07,South,190,2.0,6.0,98,0.00,,,0.33,meteohub,2013-06-10 06:38:00,
2013-06-10 02:43:00,69.4,68.9,30.07,SSW,206,3.0,6.0,98,0.00,,,0.33,meteohub,2013-06-10 06:43:00,
2013-06-10 02:49:00,69.4,68.9,30.07,SW,231,4.0,4.0,98,0.00,,,0.33,meteohub,2013-06-10 06:49:00,
2013-06-10 02:54:00,69.4,68.9,30.07,WSW,244,0.0,4.0,98,0.00,,,0.33,meteohub,2013-06-10 06:54:00,
2013-06-10 02:58:00,69.4,68.9,30.04,NE,35,0.0,4.0,98,0.00,,,0.33,meteohub,2013-06-10 06:58:00,
2013-06-10 03:04:00,69.4,68.9,30.04,North,7,0.0,4.0,98,0.00,,,0.33,meteohub,2013-06-10 07:04:00,
2013-06-10 03:09:00,69.4,68.9,30.04,SW,233,0.0,4.0,98,0.00,,,0.33,meteohub,2013-06-10 07:09:00,
2013-06-10 03:14:00,69.4,68.9,30.04,SW,219,0.0,4.0,98,0.00,,,0.33,meteohub,2013-06-10 07:14:00,
2013-06-10 03:19:00,69.4,68.9,30.04,West,265,0.0,4.0,98,0.00,,,0.33,meteohub,2013-06-10 07:19:00,
2013-06-10 03:24:00,69.4,68.9,30.04,WSW,239,0.0,4.0,98,0.00,,,0.33,meteohub,2013-06-10 07:24:00,
2013-06-10 03:29:00,69.4,68.9,30.04,SSW,202,0.0,5.0,98,0.00,,,0.33,meteohub,2013-06-10 07:29:00,
2013-06-10 03:34:00,69.4,68.9,30.04,WSW,253,0.0,5.0,98,0.00,,,0.33,meteohub,2013-06-10 07:34:00,
2013-06-10 03:39:00,69.4,68.9,30.04,SSW,197,3.0,5.0,98,0.00,,,0.33,meteohub,2013-06-10 07:39:00,
2013-06-10 03:44:00,69.4,68.9,30.04,WSW,243,0.0,5.0,98,0.00,,,0.33,meteohub,2013-06-10 07:44:00,
2013-06-10 03:49:00,69.4,68.9,30.04,SSE,163,3.0,6.0,98,0.00,,,0.33,meteohub,2013-06-10 07:49:00,
2013-06-10 03:54:00,69.4,68.9,30.04,SSE,162,3.0,6.0,98,0.00,,,0.33,meteohub,2013-06-10 07:54:00,
2013-06-10 03:59:00,69.4,68.9,30.04,SSE,166,3.0,6.0,98,0.00,,,0.33,meteohub,2013-06-10 07:59:00,
2013-06-10 04:04:00,69.4,68.9,30.04,SE,127,0.0,6.0,98,0.00,,,0.33,meteohub,2013-06-10 08:04:00,
2013-06-10 04:09:00,69.4,68.9,30.04,SSW,208,3.0,6.0,98,0.00,,,0.33,meteohub,2013-06-10 08:09:00,
2013-06-10 04:14:00,69.4,68.9,30.04,SW,223,2.0,6.0,98,0.00,,,0.33,meteohub,2013-06-10 08:14:00,
2013-06-10 04:19:00,69.4,68.9,30.04,WSW,254,2.0,6.0,98,0.00,,,0.33,meteohub,2013-06-10 08:19:00,
2013-06-10 04:24:00,69.3,68.7,30.04,SSW,198,3.0,6.0,98,0.00,,,0.33,meteohub,2013-06-10 08:24:00,
2013-06-10 04:29:00,69.3,68.7,30.04,NNE,32,3.0,6.0,98,0.00,,,0.33,meteohub,2013-06-10 08:29:00,
2013-06-10 04:34:00,69.3,68.7,30.04,West,271,5.0,5.0,98,0.00,,,0.33,meteohub,2013-06-10 08:34:00,
2013-06-10 04:39:00,69.3,68.7,30.04,WSW,256,5.0,6.0,98,0.00,,,0.33,meteohub,2013-06-10 08:39:00,
2013-06-10 04:44:00,69.3,68.7,30.04,ENE,77,0.0,6.0,98,0.00,,,0.33,meteohub,2013-06-10 08:44:00,
2013-06-10 04:49:00,69.3,68.7,30.04,West,281,5.0,7.0,98,0.00,,,0.33,meteohub,2013-06-10 08:49:00,
2013-06-10 04:54:00,69.3,68.7,30.04,SSW,208,0.0,7.0,98,0.00,,,0.33,meteohub,2013-06-10 08:54:00,
2013-06-10 04:59:00,69.3,68.7,30.04,NNW,337,3.0,7.0,98,0.00,,,0.33,meteohub,2013-06-10 08:59:00,
2013-06-10 05:04:00,69.3,68.7,30.04,WSW,251,0.0,5.0,98,0.00,,,0.33,meteohub,2013-06-10 09:04:00,
2013-06-10 05:09:00,69.3,68.7,30.04,SW,219,3.0,5.0,98,0.00,,,0.33,meteohub,2013-06-10 09:09:00,
2013-06-10 05:14:00,69.3,68.7,30.04,West,269,0.0,5.0,98,0.00,,,0.33,meteohub,2013-06-10 09:14:00,
2013-06-10 05:19:00,69.3,68.7,30.04,SW,236,3.0,5.0,98,0.00,,,0.33,meteohub,2013-06-10 09:19:00,
2013-06-10 05:24:00,69.3,68.7,30.04,North,3,0.0,6.0,98,0.00,,,0.33,meteohub,2013-06-10 09:24:00,
2013-06-10 05:29:00,69.3,68.7,30.04,South,173,5.0,6.0,98,0.00,,,0.33,meteohub,2013-06-10 09:29:00,
2013-06-10 05:34:00,69.1,68.5,30.04,NW,320,0.0,6.0,98,0.00,,,0.33,meteohub,2013-06-10 09:34:00,
2013-06-10 05:39:00,69.1,68.5,30.04,SW,234,2.0,5.0,98,0.00,,,0.33,meteohub,2013-06-10 09:39:00,
2013-06-10 05:44:00,69.1,68.5,30.04,WSW,253,0.0,5.0,98,0.00,,,0.33,meteohub,2013-06-10 09:44:00,
2013-06-10 05:49:00,69.1,68.5,30.04,WSW,239,0.0,4.0,98,0.00,,,0.33,meteohub,2013-06-10 09:49:00,
2013-06-10 05:54:00,69.1,68.5,30.04,WSW,246,5.0,5.0,98,0.00,,,0.33,meteohub,2013-06-10 09:54:00,
2013-06-10 05:59:00,69.1,68.5,30.04,WSW,253,3.0,6.0,98,0.00,,,0.33,meteohub,2013-06-10 09:59:00,
2013-06-10 06:04:00,69.1,68.5,30.04,East,79,2.0,7.0,98,0.00,,,0.33,meteohub,2013-06-10 10:04:00,
2013-06-10 06:09:00,69.1,68.5,30.04,WSW,237,6.0,7.0,98,0.00,,,0.33,meteohub,2013-06-10 10:09:00,
2013-06-10 06:14:00,69.1,68.5,30.04,WSW,246,0.0,7.0,98,0.00,,,0.33,meteohub,2013-06-10 10:14:00,
2013-06-10 06:19:00,69.1,68.5,30.04,NW,320,0.0,6.0,98,0.04,,,0.37,meteohub,2013-06-10 10:19:00,
2013-06-10 06:24:00,69.1,68.5,30.04,SSE,160,0.0,6.0,98,0.04,,,0.37,meteohub,2013-06-10 10:24:00,
2013-06-10 06:29:00,69.1,68.5,30.04,SSE,158,0.0,5.0,98,0.04,,,0.37,meteohub,2013-06-10 10:29:00,
2013-06-10 06:34:00,69.1,68.5,30.04,West,262,5.0,5.0,98,0.04,,,0.37,meteohub,2013-06-10 10:34:00,
2013-06-10 06:39:00,68.9,68.4,30.04,SE,135,0.0,5.0,98,0.04,,,0.37,meteohub,2013-06-10 10:39:00,
2013-06-10 06:44:00,68.9,68.4,30.04,NNW,337,0.0,6.0,98,0.17,,,0.50,meteohub,2013-06-10 10:44:00,
2013-06-10 06:49:00,68.9,68.4,30.04,WSW,258,0.0,6.0,98,0.17,,,0.50,meteohub,2013-06-10 10:49:00,
2013-06-10 06:54:00,68.9,68.4,30.04,NNE,33,0.0,8.0,98,0.17,,,0.50,meteohub,2013-06-10 10:54:00,
2013-06-10 06:59:00,68.9,68.4,30.04,NNW,330,3.0,8.0,98,0.17,,,0.50,meteohub,2013-06-10 10:59:00,
2013-06-10 07:04:00,68.9,68.4,30.04,WSW,247,2.0,8.0,98,0.17,,,0.50,meteohub,2013-06-10 11:04:00,
2013-06-10 07:09:00,68.9,68.4,30.04,WSW,250,0.0,6.0,98,0.17,,,0.50,meteohub,2013-06-10 11:09:00,
2013-06-10 07:14:00,68.9,68.4,30.04,SW,221,0.0,4.0,98,0.13,,,0.50,meteohub,2013-06-10 11:14:00,
2013-06-10 07:19:00,68.9,68.4,30.04,WSW,243,0.0,4.0,98,0.13,,,0.50,meteohub,2013-06-10 11:19:00,
2013-06-10 07:25:00,68.9,68.4,30.04,WSW,254,5.0,5.0,98,0.13,,,0.50,meteohub,2013-06-10 11:25:00,
2013-06-10 07:30:00,69.1,68.5,30.04,South,178,2.0,5.0,98,0.13,,,0.50,meteohub,2013-06-10 11:30:00,
2013-06-10 07:35:00,69.1,68.5,30.04,NW,306,2.0,5.0,98,0.13,,,0.50,meteohub,2013-06-10 11:35:00,
2013-06-10 07:40:00,69.1,68.5,30.04,West,271,2.0,5.0,98,0.04,,,0.54,meteohub,2013-06-10 11:40:00,
2013-06-10 07:45:00,69.1,68.5,30.04,SW,230,0.0,5.0,98,0.04,,,0.54,meteohub,2013-06-10 11:45:00,
2013-06-10 07:50:00,69.1,68.5,30.04,SSW,201,0.0,5.0,98,0.04,,,0.54,meteohub,2013-06-10 11:50:00,
2013-06-10 07:55:00,69.1,68.5,30.04,WNW,290,2.0,5.0,98,0.08,,,0.58,meteohub,2013-06-10 11:55:00,
2013-06-10 08:00:00,69.1,68.5,30.04,South,182,0.0,6.0,98,0.08,,,0.58,meteohub,2013-06-10 12:00:00,
2013-06-10 08:05:00,69.1,68.5,30.04,NE,43,0.0,6.0,98,0.08,,,0.58,meteohub,2013-06-10 12:05:00,
2013-06-10 08:10:00,69.1,68.5,30.04,South,169,3.0,6.0,98,0.08,,,0.58,meteohub,2013-06-10 12:10:00,
2013-06-10 08:15:00,69.1,68.5,30.04,South,187,0.0,6.0,98,0.08,,,0.58,meteohub,2013-06-10 12:15:00,
2013-06-10 08:20:00,69.1,68.5,30.04,South,186,3.0,6.0,98,0.12,,,0.62,meteohub,2013-06-10 12:20:00,
2013-06-10 08:25:00,69.1,68.5,30.04,SW,221,0.0,6.0,98,0.12,,,0.62,meteohub,2013-06-10 12:25:00,
2013-06-10 08:30:00,69.1,68.5,30.04,NW,319,0.0,5.0,98,0.12,,,0.62,meteohub,2013-06-10 12:30:00,
2013-06-10 08:35:00,69.3,68.7,30.04,WSW,258,0.0,5.0,98,0.08,,,0.62,meteohub,2013-06-10 12:35:00,
2013-06-10 08:40:00,69.3,68.7,30.04,SW,228,0.0,5.0,98,0.08,,,0.62,meteohub,2013-06-10 12:40:00,
2013-06-10 08:45:00,69.3,68.7,30.04,South,169,3.0,6.0,98,0.08,,,0.62,meteohub,2013-06-10 12:45:00,
2013-06-10 08:50:00,69.3,68.7,30.04,SW,225,0.0,7.0,98,0.08,,,0.62,meteohub,2013-06-10 12:50:00,
2013-06-10 08:55:00,69.4,68.9,30.04,SW,214,3.0,7.0,98,0.04,,,0.62,meteohub,2013-06-10 12:55:00,
2013-06-10 09:00:00,69.4,68.9,30.04,West,265,9.0,9.0,98,0.04,,,0.62,meteohub,2013-06-10 13:00:00,
2013-06-10 09:05:00,69.6,69.1,30.04,West,279,2.0,9.0,98,0.04,,,0.62,meteohub,2013-06-10 13:05:00,
2013-06-10 09:10:00,69.6,69.1,30.04,WNW,291,0.0,9.0,98,0.04,,,0.62,meteohub,2013-06-10 13:10:00,
2013-06-10 09:15:00,69.8,69.3,30.04,SSE,154,3.0,9.0,98,0.04,,,0.62,meteohub,2013-06-10 13:15:00,
2013-06-10 09:20:00,69.8,69.3,30.03,WSW,252,3.0,8.0,98,0.00,,,0.62,meteohub,2013-06-10 13:20:00,
2013-06-10 09:25:00,70.0,69.4,30.03,NW,310,0.0,8.0,98,0.00,,,0.62,meteohub,2013-06-10 13:25:00,
2013-06-10 09:30:00,70.2,69.6,30.03,WSW,245,3.0,8.0,98,0.00,,,0.62,meteohub,2013-06-10 13:30:00,
2013-06-10 09:35:00,70.2,69.6,30.03,West,266,0.0,8.0,98,0.00,,,0.62,meteohub,2013-06-10 13:35:00,
2013-06-10 09:40:00,70.2,69.6,30.03,SW,216,2.0,9.0,98,0.00,,,0.62,meteohub,2013-06-10 13:40:00,
2013-06-10 09:45:00,70.2,69.6,30.03,NE,38,0.0,9.0,98,0.00,,,0.62,meteohub,2013-06-10 13:45:00,
2013-06-10 09:50:00,70.3,69.8,30.03,SSW,196,4.0,9.0,98,0.00,,,0.62,meteohub,2013-06-10 13:50:00,
2013-06-10 09:55:00,70.5,70.0,30.03,SSW,208,2.0,6.0,98,0.00,,,0.62,meteohub,2013-06-10 13:55:00,
2013-06-10 10:00:00,70.5,70.0,30.03,NW,314,0.0,7.0,98,0.00,,,0.62,meteohub,2013-06-10 14:00:00,
2013-06-10 10:05:00,70.7,70.2,30.03,WNW,291,4.0,7.0,98,0.00,,,0.62,meteohub,2013-06-10 14:05:00,
2013-06-10 10:10:00,70.7,70.2,30.03,WNW,295,4.0,7.0,98,0.00,,,0.62,meteohub,2013-06-10 14:10:00,
2013-06-10 10:15:00,70.9,70.3,30.03,WSW,257,6.0,6.0,98,0.00,,,0.62,meteohub,2013-06-10 14:15:00,
2013-06-10 10:20:00,71.1,70.5,30.03,SSE,165,2.0,6.0,98,0.00,,,0.62,meteohub,2013-06-10 14:20:00,
2013-06-10 10:25:00,71.1,70.5,30.03,West,268,4.0,6.0,98,0.00,,,0.62,meteohub,2013-06-10 14:25:00,
2013-06-10 10:30:00,71.1,70.5,30.03,SSE,152,3.0,6.0,98,0.00,,,0.62,meteohub,2013-06-10 14:30:00,
2013-06-10 10:35:00,71.1,70.5,30.03,West,276,5.0,6.0,98,0.00,,,0.62,meteohub,2013-06-10 14:35:00,
2013-06-10 10:41:00,71.1,70.5,30.03,West,275,3.0,6.0,98,0.00,,,0.62,meteohub,2013-06-10 14:41:00,
2013-06-10 10:46:00,71.1,70.5,30.03,West,278,4.0,6.0,98,0.00,,,0.62,meteohub,2013-06-10 14:46:00,
2013-06-10 10:51:00,71.1,70.5,30.03,SW,236,0.0,6.0,98,0.04,,,0.67,meteohub,2013-06-10 14:51:00,
2013-06-10 10:56:00,71.1,70.5,30.03,West,281,3.0,6.0,98,0.04,,,0.67,meteohub,2013-06-10 14:56:00,
2013-06-10 11:01:00,71.1,70.5,30.03,East,86,0.0,6.0,98,0.04,,,0.67,meteohub,2013-06-10 15:01:00,
2013-06-10 11:06:00,71.1,70.5,30.03,WSW,255,3.0,5.0,98,0.04,,,0.67,meteohub,2013-06-10 15:06:00,
2013-06-10 11:11:00,71.1,70.5,30.03,SW,233,5.0,6.0,98,0.04,,,0.67,meteohub,2013-06-10 15:11:00,
2013-06-10 11:16:00,71.2,70.7,30.03,West,268,4.0,6.0,98,0.04,,,0.67,meteohub,2013-06-10 15:16:00,
2013-06-10 11:21:00,71.2,70.7,30.03,South,188,8.0,8.0,98,0.04,,,0.67,meteohub,2013-06-10 15:21:00,
2013-06-10 11:26:00,71.4,70.9,30.03,SSW,195,0.0,8.0,98,0.04,,,0.67,meteohub,2013-06-10 15:26:00,
2013-06-10 11:31:00,71.4,70.9,30.03,SW,231,4.0,8.0,98,0.04,,,0.67,meteohub,2013-06-10 15:31:00,
2013-06-10 11:36:00,71.4,70.9,30.03,SSE,151,4.0,8.0,98,0.04,,,0.67,meteohub,2013-06-10 15:36:00,
2013-06-10 11:41:00,71.6,71.1,30.03,NNW,334,0.0,8.0,98,0.04,,,0.67,meteohub,2013-06-10 15:41:00,
2013-06-10 11:46:00,71.8,71.2,30.03,SSW,198,2.0,8.0,98,0.00,,,0.67,meteohub,2013-06-10 15:46:00,
2013-06-10 11:51:00,71.8,71.2,30.03,West,274,5.0,8.0,98,0.00,,,0.67,meteohub,2013-06-10 15:51:00,
2013-06-10 11:56:00,71.8,71.2,30.03,ESE,112,3.0,8.0,98,0.00,,,0.67,meteohub,2013-06-10 15:56:00,
2013-06-10 12:01:00,71.8,71.2,30.03,WNW,292,4.0,8.0,98,0.00,,,0.67,meteohub,2013-06-10 16:01:00,
2013-06-10 12:06:00,71.8,71.2,30.03,SW,217,0.0,7.0,98,0.00,,,0.67,meteohub,2013-06-10 16:06:00,
2013-06-10 12:12:00,71.8,71.2,30.03,ESE,111,3.0,7.0,98,0.00,,,0.67,meteohub,2013-06-10 16:12:00,
2013-06-10 12:17:00,71.8,71.2,30.03,SSE,157,3.0,6.0,98,0.00,,,0.67,meteohub,2013-06-10 16:17:00,
2013-06-10 12:22:00,71.8,71.2,30.03,NNE,14,4.0,6.0,98,0.00,,,0.67,meteohub,2013-06-10 16:22:00,
2013-06-10 12:27:00,72.0,71.4,30.03,NE,49,6.0,6.0,98,0.04,,,0.70,meteohub,2013-06-10 16:27:00,
2013-06-10 12:32:00,72.1,71.6,30.00,West,265,0.0,6.0,98,0.04,,,0.70,meteohub,2013-06-10 16:32:00,
2013-06-10 12:37:00,72.1,71.6,30.00,SSW,195,3.0,6.0,98,0.04,,,0.70,meteohub,2013-06-10 16:37:00,
2013-06-10 12:42:00,72.1,71.6,30.00,ESE,103,0.0,6.0,98,0.04,,,0.70,meteohub,2013-06-10 16:42:00,
2013-06-10 12:47:00,72.3,71.8,30.03,East,101,4.0,6.0,98,0.04,,,0.70,meteohub,2013-06-10 16:47:00,
2013-06-10 12:52:00,72.1,71.6,30.03,NE,46,2.0,6.0,98,0.04,,,0.70,meteohub,2013-06-10 16:52:00,
2013-06-10 12:57:00,72.1,71.6,30.03,ESE,114,0.0,7.0,98,0.04,,,0.70,meteohub,2013-06-10 16:57:00,
2013-06-10 13:02:00,72.1,71.6,30.00,NNE,30,3.0,7.0,98,0.04,,,0.70,meteohub,2013-06-10 17:02:00,
2013-06-10 13:07:00,71.8,71.2,30.00,NE,34,8.0,13.0,98,0.04,,,0.70,meteohub,2013-06-10 17:07:00,
2013-06-10 13:12:00,70.9,70.3,30.01,NE,55,3.0,13.0,98,0.17,,,0.83,meteohub,2013-06-10 17:12:00,
2013-06-10 13:17:00,70.5,70.0,30.04,NE,55,0.0,13.0,98,0.33,,,1.00,meteohub,2013-06-10 17:17:00,
2013-06-10 13:22:00,70.5,70.0,30.04,NE,55,0.0,11.0,98,0.37,,,1.04,meteohub,2013-06-10 17:22:00,
2013-06-10 13:27:00,70.5,70.0,30.04,NE,55,0.0,6.0,98,0.33,,,1.04,meteohub,2013-06-10 17:27:00,
2013-06-10 13:32:00,70.3,69.8,30.01,NE,55,3.0,0.0,98,0.33,,,1.04,meteohub,2013-06-10 17:32:00,
2013-06-10 13:37:00,70.3,69.8,30.01,NE,55,0.0,3.0,98,0.33,,,1.04,meteohub,2013-06-10 17:37:00,
2013-06-10 13:42:00,70.3,69.8,30.01,NE,55,0.0,3.0,98,0.33,,,1.04,meteohub,2013-06-10 17:42:00,
2013-06-10 13:47:00,70.5,70.0,30.00,SSW,213,0.0,3.0,98,0.33,,,1.04,meteohub,2013-06-10 17:47:00,
2013-06-10 13:52:00,70.7,70.2,30.00,NNW,328,4.0,6.0,98,0.33,,,1.04,meteohub,2013-06-10 17:52:00,
2013-06-10 13:57:00,70.7,70.2,30.00,SSW,207,3.0,6.0,98,0.33,,,1.04,meteohub,2013-06-10 17:57:00,
2013-06-10 14:03:00,70.5,70.0,30.00,West,268,0.0,6.0,98,0.33,,,1.04,meteohub,2013-06-10 18:03:00,
2013-06-10 14:08:00,70.5,70.0,30.00,NW,310,4.0,6.0,98,0.29,,,1.04,meteohub,2013-06-10 18:08:00,
2013-06-10 14:13:00,70.9,70.3,30.03,South,171,4.0,6.0,98,0.08,,,1.04,meteohub,2013-06-10 18:13:00,
2013-06-10 14:18:00,70.9,70.3,30.03,East,79,4.0,6.0,98,0.04,,,1.04,meteohub,2013-06-10 18:18:00,
2013-06-10 14:23:00,70.9,70.3,30.03,SE,143,3.0,8.0,98,0.00,,,1.04,meteohub,2013-06-10 18:23:00,
2013-06-10 14:28:00,70.9,70.3,30.00,SW,234,0.0,8.0,98,0.00,,,1.04,meteohub,2013-06-10 18:28:00,
2013-06-10 14:33:00,70.9,70.3,30.00,SSW,208,5.0,9.0,98,0.00,,,1.04,meteohub,2013-06-10 18:33:00,
2013-06-10 14:38:00,71.1,70.5,30.00,SSW,198,0.0,9.0,98,0.00,,,1.04,meteohub,2013-06-10 18:38:00,
2013-06-10 14:43:00,71.1,70.5,30.00,WSW,255,3.0,6.0,98,0.00,,,1.04,meteohub,2013-06-10 18:43:00,
2013-06-10 14:48:00,71.1,70.5,30.00,West,278,4.0,8.0,98,0.00,,,1.04,meteohub,2013-06-10 18:48:00,
2013-06-10 14:53:00,71.1,70.5,30.00,NNW,327,0.0,8.0,98,0.00,,,1.04,meteohub,2013-06-10 18:53:00,
2013-06-10 14:58:00,71.1,70.5,30.00,WSW,245,10.0,10.0,98,0.00,,,1.04,meteohub,2013-06-10 18:58:00,
2013-06-10 15:03:00,71.1,70.5,30.00,North,2,0.0,10.0,98,0.00,,,1.04,meteohub,2013-06-10 19:03:00,
2013-06-10 15:08:00,71.2,70.7,30.00,SW,220,4.0,10.0,98,0.00,,,1.04,meteohub,2013-06-10 19:08:00,
2013-06-10 15:13:00,71.2,70.7,29.99,North,357,0.0,10.0,98,0.00,,,1.04,meteohub,2013-06-10 19:13:00,
2013-06-10 15:18:00,71.2,70.7,29.99,WNW,298,5.0,8.0,98,0.00,,,1.04,meteohub,2013-06-10 19:18:00,
2013-06-10 15:23:00,71.2,70.7,29.99,SSE,157,3.0,8.0,98,0.00,,,1.04,meteohub,2013-06-10 19:23:00,
2013-06-10 15:28:00,71.4,70.9,29.99,WNW,291,4.0,8.0,98,0.00,,,1.04,meteohub,2013-06-10 19:28:00,
2013-06-10 15:33:00,71.4,70.9,29.99,ENE,64,3.0,8.0,98,0.00,,,1.04,meteohub,2013-06-10 19:33:00,
2013-06-10 15:38:00,71.4,70.9,29.99,SSW,213,3.0,8.0,98,0.00,,,1.04,meteohub,2013-06-10 19:38:00,
2013-06-10 15:43:00,71.4,70.9,29.96,West,269,5.0,9.0,98,0.00,,,1.04,meteohub,2013-06-10 19:43:00,
2013-06-10 15:48:00,71.4,70.9,29.96,West,274,3.0,9.0,98,0.00,,,1.04,meteohub,2013-06-10 19:48:00,
2013-06-10 15:53:00,71.4,70.9,29.96,North,357,3.0,9.0,98,0.00,,,1.04,meteohub,2013-06-10 19:53:00,
2013-06-10 15:58:00,71.4,70.9,29.96,NE,43,3.0,9.0,98,0.00,,,1.04,meteohub,2013-06-10 19:58:00,
2013-06-10 16:03:00,71.4,70.9,29.96,WNW,292,0.0,6.0,98,0.00,,,1.04,meteohub,2013-06-10 20:03:00,
2013-06-10 16:08:00,71.4,70.9,29.96,ENE,62,0.0,9.0,98,0.00,,,1.04,meteohub,2013-06-10 20:08:00,
2013-06-10 16:14:00,71.4,70.9,29.96,North,4,2.0,9.0,98,0.00,,,1.04,meteohub,2013-06-10 20:14:00,
2013-06-10 16:19:00,71.4,70.9,29.96,SW,219,4.0,9.0,98,0.00,,,1.04,meteohub,2013-06-10 20:19:00,
2013-06-10 16:24:00,71.4,70.9,29.96,NW,313,3.0,8.0,98,0.00,,,1.04,meteohub,2013-06-10 20:24:00,
2013-06-10 16:29:00,71.4,70.9,29.96,SSW,213,0.0,8.0,98,0.00,,,1.04,meteohub,2013-06-10 20:29:00,
2013-06-10 16:34:00,71.4,70.9,29.96,WSW,257,4.0,8.0,98,0.00,,,1.04,meteohub,2013-06-10 20:34:00,
2013-06-10 16:39:00,71.4,70.9,29.96,ESE,116,0.0,6.0,98,0.00,,,1.04,meteohub,2013-06-10 20:39:00,
2013-06-10 16:44:00,71.4,70.9,29.96,ENE,67,0.0,6.0,98,0.00,,,1.04,meteohub,2013-06-10 20:44:00,
2013-06-10 16:49:00,71.4,70.9,29.96,SW,217,5.0,7.0,98,0.00,,,1.04,meteohub,2013-06-10 20:49:00,
2013-06-10 16:54:00,71.6,71.1,29.96,WSW,240,0.0,7.0,98,0.00,,,1.04,meteohub,2013-06-10 20:54:00,
2013-06-10 16:59:00,71.6,71.1,29.96,WSW,257,4.0,5.0,98,0.00,,,1.04,meteohub,2013-06-10 20:59:00,
2013-06-10 17:04:00,71.6,71.1,29.96,SSW,207,3.0,5.0,98,0.00,,,1.04,meteohub,2013-06-10 21:04:00,
2013-06-10 17:09:00,71.6,71.1,29.96,West,265,0.0,6.0,98,0.00,,,1.04,meteohub,2013-06-10 21:09:00,
2013-06-10 17:14:00,71.6,71.1,29.96,West,271,3.0,6.0,98,0.00,,,1.04,meteohub,2013-06-10 21:14:00,
2013-06-10 17:19:00,71.6,71.1,29.96,WSW,238,3.0,6.0,98,0.00,,,1.04,meteohub,2013-06-10 21:19:00,
2013-06-10 17:24:00,71.6,71.1,29.96,WSW,246,0.0,5.0,98,0.00,,,1.04,meteohub,2013-06-10 21:24:00,
2013-06-10 17:29:00,71.6,71.1,29.96,South,189,3.0,5.0,98,0.00,,,1.04,meteohub,2013-06-10 21:29:00,
2013-06-10 17:34:00,71.6,71.1,29.96,West,267,0.0,6.0,98,0.00,,,1.04,meteohub,2013-06-10 21:34:00,
2013-06-10 17:39:00,71.6,71.1,29.96,SW,223,0.0,6.0,98,0.00,,,1.04,meteohub,2013-06-10 21:39:00,
2013-06-10 17:44:00,71.6,71.1,29.96,NW,320,0.0,6.0,98,0.00,,,1.04,meteohub,2013-06-10 21:44:00,
2013-06-10 17:49:00,71.6,71.1,29.96,WNW,294,0.0,4.0,98,0.00,,,1.04,meteohub,2013-06-10 21:49:00,
2013-06-10 17:54:00,71.6,71.1,29.96,SSW,205,3.0,4.0,98,0.00,,,1.04,meteohub,2013-06-10 21:54:00,
2013-06-10 17:59:00,71.6,71.1,29.96,WSW,250,0.0,5.0,98,0.00,,,1.04,meteohub,2013-06-10 21:59:00,
2013-06-10 18:04:00,71.6,71.1,29.96,SW,235,0.0,5.0,98,0.00,,,1.04,meteohub,2013-06-10 22:04:00,
2013-06-10 18:09:00,71.6,71.1,29.96,NE,38,0.0,5.0,98,0.00,,,1.04,meteohub,2013-06-10 22:09:00,
2013-06-10 18:14:00,71.6,71.1,29.96,NNE,14,0.0,4.0,98,0.00,,,1.04,meteohub,2013-06-10 22:14:00,
2013-06-10 18:19:00,71.6,71.1,29.97,NE,35,0.0,6.0,98,0.00,,,1.04,meteohub,2013-06-10 22:19:00,
2013-06-10 18:24:00,71.6,71.1,29.97,SW,236,2.0,6.0,98,0.00,,,1.04,meteohub,2013-06-10 22:24:00,
2013-06-10 18:29:00,71.6,71.1,29.97,SW,234,0.0,6.0,98,0.00,,,1.04,meteohub,2013-06-10 22:29:00,
2013-06-10 18:34:00,71.6,71.1,29.97,West,277,0.0,6.0,98,0.00,,,1.04,meteohub,2013-06-10 22:34:00,
2013-06-10 18:39:00,71.6,71.1,29.97,WSW,241,0.0,6.0,98,0.00,,,1.04,meteohub,2013-06-10 22:39:00,
2013-06-10 18:44:00,71.6,71.1,29.97,WSW,240,0.0,5.0,98,0.00,,,1.04,meteohub,2013-06-10 22:44:00,
2013-06-10 18:49:00,71.6,71.1,29.97,West,275,3.0,5.0,98,0.00,,,1.04,meteohub,2013-06-10 22:49:00,
2013-06-10 18:54:00,71.6,71.1,29.97,SSW,206,0.0,3.0,98,0.00,,,1.04,meteohub,2013-06-10 22:54:00,
2013-06-10 18:59:00,71.6,71.1,29.97,WSW,258,3.0,4.0,98,0.00,,,1.04,meteohub,2013-06-10 22:59:00,
2013-06-10 19:04:00,71.6,71.1,29.97,West,279,0.0,5.0,98,0.00,,,1.04,meteohub,2013-06-10 23:04:00,
2013-06-10 19:09:00,71.4,70.9,29.97,ESE,104,0.0,5.0,98,0.00,,,1.04,meteohub,2013-06-10 23:09:00,
2013-06-10 19:14:00,71.4,70.9,29.97,West,275,2.0,5.0,98,0.00,,,1.04,meteohub,2013-06-10 23:14:00,
2013-06-10 19:19:00,71.4,70.9,29.97,WSW,247,0.0,4.0,98,0.00,,,1.04,meteohub,2013-06-10 23:19:00,
2013-06-10 19:24:00,71.4,70.9,29.96,WSW,254,0.0,4.0,98,0.00,,,1.04,meteohub,2013-06-10 23:24:00,
2013-06-10 19:29:00,71.4,70.9,29.94,NNW,342,0.0,3.0,98,0.00,,,1.04,meteohub,2013-06-10 23:29:00,
2013-06-10 19:34:00,71.4,70.9,29.93,SSW,195,3.0,4.0,98,0.00,,,1.04,meteohub,2013-06-10 23:34:00,
2013-06-10 19:39:00,71.4,70.9,29.93,NNW,327,0.0,4.0,98,0.00,,,1.04,meteohub,2013-06-10 23:39:00,
2013-06-10 19:44:00,71.4,70.9,29.96,WSW,258,0.0,4.0,98,0.00,,,1.04,meteohub,2013-06-10 23:44:00,
2013-06-10 19:49:00,71.4,70.9,29.96,WNW,289,0.0,3.0,98,0.00,,,1.04,meteohub,2013-06-10 23:49:00,
2013-06-10 19:54:00,71.4,70.9,29.96,West,263,0.0,3.0,98,0.00,,,1.04,meteohub,2013-06-10 23:54:00,
2013-06-10 19:59:00,71.2,70.7,29.94,NNW,332,0.0,4.0,98,0.00,,,1.04,meteohub,2013-06-10 23:59:00,
2013-06-10 20:04:00,71.2,70.7,29.94,WNW,297,0.0,4.0,98,0.00,,,1.04,meteohub,2013-06-11 00:04:00,
2013-06-10 20:09:00,71.2,70.7,29.94,WNW,297,0.0,4.0,98,0.00,,,0.00,meteohub,2013-06-11 00:09:00,
2013-06-10 20:15:00,71.2,70.7,29.94,WNW,291,0.0,4.0,98,0.00,,,0.00,meteohub,2013-06-11 00:15:00,
2013-06-10 20:20:00,71.1,70.5,29.94,West,262,0.0,4.0,98,0.00,,,0.00,meteohub,2013-06-11 00:20:00,
2013-06-10 20:25:00,71.1,70.5,29.94,West,270,0.0,4.0,98,0.00,,,0.00,meteohub,2013-06-11 00:25:00,
2013-06-10 20:30:00,71.1,70.5,29.97,West,270,0.0,4.0,98,0.00,,,0.00,meteohub,2013-06-11 00:30:00,
2013-06-10 20:35:00,71.1,70.5,29.97,NW,317,0.0,3.0,98,0.00,,,0.00,meteohub,2013-06-11 00:35:00,
2013-06-10 20:40:00,70.9,70.3,29.97,NW,317,0.0,3.0,98,0.00,,,0.00,meteohub,2013-06-11 00:40:00,
2013-06-10 20:45:00,70.9,70.3,29.97,NW,317,0.0,3.0,98,0.00,,,0.00,meteohub,2013-06-11 00:45:00,
2013-06-10 20:50:00,70.9,70.3,29.97,NW,317,0.0,0.0,98,0.00,,,0.00,meteohub,2013-06-11 00:50:00,
2013-06-10 20:55:00,70.7,70.2,29.97,NW,317,0.0,0.0,98,0.00,,,0.00,meteohub,2013-06-11 00:55:00,
2013-06-10 21:00:00,70.7,70.2,29.97,NW,317,0.0,0.0,98,0.00,,,0.00,meteohub,2013-06-11 01:00:00,
2013-06-10 21:05:00,70.7,70.2,29.97,NW,317,0.0,0.0,98,0.00,,,0.00,meteohub,2013-06-11 01:05:00,
2013-06-10 21:10:00,70.5,70.0,29.97,NW,317,0.0,0.0,98,0.00,,,0.00,meteohub,2013-06-11 01:10:00,
2013-06-10 21:15:00,70.5,70.0,29.97,NW,317,0.0,0.0,98,0.00,,,0.00,meteohub,2013-06-11 01:15:00,
2013-06-10 21:20:00,70.3,69.8,29.98,NW,317,0.0,0.0,98,0.00,,,0.00,meteohub,2013-06-11 01:20:00,
2013-06-10 21:25:00,70.3,69.8,29.98,NW,317,0.0,0.0,98,0.00,,,0.00,meteohub,2013-06-11 01:25:00,
2013-06-10 21:30:00,70.3,69.8,29.98,NW,317,0.0,0.0,98,0.00,,,0.00,meteohub,2013-06-11 01:30:00,
2013-06-10 21:35:00,70.2,69.6,29.98,NW,317,0.0,0.0,98,0.00,,,0.00,meteohub,2013-06-11 01:35:00,
2013-06-10 21:40:00,70.2,69.6,29.98,NW,317,0.0,0.0,98,0.00,,,0.00,meteohub,2013-06-11 01:40:00,
2013-06-10 21:45:00,70.2,69.6,30.01,NW,317,0.0,0.0,98,0.00,,,0.00,meteohub,2013-06-11 01:45:00,
2013-06-10 21:50:00,70.0,69.4,30.01,ESE,116,0.0,0.0,98,0.00,,,0.00,meteohub,2013-06-11 01:50:00,
2013-06-10 21:55:00,70.0,69.4,30.01,ESE,116,0.0,0.0,98,0.00,,,0.00,meteohub,2013-06-11 01:55:00,
2013-06-10 22:00:00,69.8,69.3,30.01,ESE,116,0.0,0.0,98,0.00,,,0.00,meteohub,2013-06-11 02:00:00,
2013-06-10 22:05:00,69.8,69.3,30.01,ESE,116,0.0,0.0,98,0.00,,,0.00,meteohub,2013-06-11 02:05:00,
2013-06-10 22:10:00,69.8,69.3,30.01,ESE,116,0.0,0.0,98,0.00,,,0.00,meteohub,2013-06-11 02:10:00,
2013-06-10 22:15:00,69.6,69.1,30.01,ESE,116,0.0,0.0,98,0.00,,,0.00,meteohub,2013-06-11 02:15:00,
2013-06-10 22:20:00,69.6,69.1,30.01,ESE,116,0.0,0.0,98,0.00,,,0.00,meteohub,2013-06-11 02:20:00,
2013-06-10 22:25:00,69.6,69.1,30.01,ESE,116,0.0,0.0,98,0.00,,,0.00,meteohub,2013-06-11 02:25:00,
2013-06-10 22:30:00,69.4,68.9,30.01,ESE,116,0.0,0.0,98,0.00,,,0.00,meteohub,2013-06-11 02:30:00,
2013-06-10 22:35:00,69.4,68.9,30.01,ESE,116,0.0,0.0,98,0.00,,,0.00,meteohub,2013-06-11 02:35:00,
2013-06-10 22:40:00,69.3,68.7,30.01,ESE,116,0.0,0.0,98,0.00,,,0.00,meteohub,2013-06-11 02:40:00,
2013-06-10 22:45:00,69.3,68.7,30.04,ENE,64,0.0,0.0,98,0.00,,,0.00,meteohub,2013-06-11 02:45:00,
2013-06-10 22:50:00,69.1,68.5,30.04,WSW,243,0.0,0.0,98,0.00,,,0.00,meteohub,2013-06-11 02:50:00,
2013-06-10 22:55:00,69.1,68.5,30.04,WSW,243,0.0,3.0,98,0.00,,,0.00,meteohub,2013-06-11 02:55:00,
2013-06-10 23:00:00,69.1,68.5,30.04,SSW,206,0.0,3.0,98,0.00,,,0.00,meteohub,2013-06-11 03:00:00,
2013-06-10 23:05:00,68.9,68.4,30.04,West,273,0.0,3.0,98,0.00,,,0.00,meteohub,2013-06-11 03:05:00,
2013-06-10 23:10:00,68.9,68.4,30.04,WNW,282,0.0,4.0,98,0.00,,,0.00,meteohub,2013-06-11 03:10:00,
2013-06-10 23:15:00,68.9,68.4,30.01,NW,318,0.0,4.0,98,0.00,,,0.00,meteohub,2013-06-11 03:15:00,
2013-06-10 23:20:00,68.7,68.2,30.01,WSW,246,2.0,4.0,98,0.00,,,0.00,meteohub,2013-06-11 03:20:00,
2013-06-10 23:25:00,68.7,68.2,30.01,WNW,288,0.0,6.0,98,0.00,,,0.00,meteohub,2013-06-11 03:25:00,
2013-06-10 23:30:00,68.5,68.0,30.01,WSW,240,0.0,6.0,98,0.00,,,0.00,meteohub,2013-06-11 03:30:00,
2013-06-10 23:35:00,68.5,68.0,30.01,West,267,0.0,5.0,98,0.00,,,0.00,meteohub,2013-06-11 03:35:00,
2013-06-10 23:40:00,68.5,68.0,30.01,West,260,4.0,5.0,98,0.00,,,0.00,meteohub,2013-06-11 03:40:00,
2013-06-10 23:45:00,68.5,68.0,30.01,West,278,0.0,5.0,98,0.00,,,0.00,meteohub,2013-06-11 03:45:00,
2013-06-10 23:50:00,68.4,67.8,30.01,North,353,0.0,4.0,98,0.00,,,0.00,meteohub,2013-06-11 03:50:00,
2013-06-10 23:56:00,68.4,67.8,30.01,WNW,287,0.0,4.0,98,0.00,,,0.00,meteohub,2013-06-11 03:56:00,